User: anonymous   Login
Location: Unspecified
(0.0000°N, 0.0000°E)
Time: 07:14:11
(UTC+00:00)
Language:

CANX-2 - Orbit

View from above orbital plane
View from above orbital plane
View from above satellite
View from above satellite

Ground track
Ground track

The orbit data is extracted from the following two-line orbital elements,

1 32790U 08021H   17178.51373835 +.00000184 +00000-0 +25871-4 0  9991
2 32790 097.5637 200.6836 0015031 131.6564 228.5943 14.87622563496298
Epoch (UTC): 27 June 2017 12:19:46
Eccentricity: 0.0015031
inclination: 97.5637°
perigee height: 595 km
apogee height: 616 km
right ascension of ascending node: 200.6836°
argument of perigee: 131.6564°
revolutions per day: 14.87622563
mean anomaly at epoch: 228.5943°
orbit number at epoch: 49629

The dashed part of the orbit path shows where the satellite is in the earth's shadow,  

DLR